Погода в Кленовке

Россия / Волгоградская область     51°08′16″N   44°29′01″E
темп.,
°C
ветер,
м/с
пор.,
м/с
влажн.,
%
обл.,
%
осадки,
мм/ч
давл.,
гПа
погр.,
м
17 мая, пн
пн1700:00+19юв465199 0.0 101478
03:00+17юв235513 0.0 101420
06:00+18вюв4956100 0.0 1014153
09:00+24вюв613415 0.0 1014717
12:00+27юв7113699 0.0 10141045
15:00+29юв6103543 0.0 10132725
18:00+25вюв4105167 0.0 1012243
21:00+19в5145175 0.0 1012218
18 мая, вт
вт1800:00+17вюв412495 0.0 1012158
03:00+15в495376 0.0 1012126
06:00+16в4126155 0.0 1011213
09:00+24вюв714445 0.0 1010519
12:00+28вюв814355 0.0 10101659
15:00+29юв712320 0.0 10092949
18:00+25вюв614450 0.0 1008367
21:00+19ююз335954 0.0 101026
19 мая, ср
ср1900:00+18всв345599 0.0 100939
03:00+19в51355100 0.0 1008260
06:00+18в5126683 0.0 1008301
09:00+23юв6950100 0.0 1008792
12:00+25ююв610450 0.0 10081492
15:00+26ю594432 0.0 10082237
18:00+24юз3560100 0.0 1008195
21:00+17юз3682100 0.9 1010104
20 мая, чт
чт2000:00+15юз2393100 0.9 101162
03:00+14юз4994100 3.5 1011393
06:00+13ю2391100 1.1 1012260
09:00+16ю4571100 1.9 10131022
12:00+19ю6856100 0.2 10121786
15:00+20ююз795720 0.8 10131641
18:00+18ююз68695 0.4 1013981
21:00+14ююз48875 0.5 1015157
21 мая, пт
пт2100:00+12ююз37920 0.0 1016125
03:00+12юз369574 0.0 1017114
06:00+13ююз358446 0.0 1018195
09:00+19юз4664100 0.0 1019843
12:00+22ююз345063 0.0 10191639
15:00+24ююз4545100 0.0 10191894
18:00+22ююв2458100 0.0 1019121
21:00+18юв226693 0.0 102018